Weather History for Forrest, WE

Change the Weather History Date:

Wednesday, February 20, 2013

  Actual Average Record
Temperature  
Mean Temperature 74 °F -  
Max Temperature 91 °F - - ()
Min Temperature 57 °F - - ()
Cooling Degree Days 9    
Growing Degree Days 24 (Base 50)    
Moisture  
Dew Point 54 °F    
Average Humidity 54    
Maximum Humidity 82    
Minimum Humidity 20    
Precipitation  
Precipitation 0.00 in - - ()
Sea Level Pressure  
Sea Level Pressure 30.01 in    
Wind  
Wind Speed 12 mph ()    
Max Wind Speed 24 mph    
Max Gust Speed 31 mph    
T = Trace of Precipitation, MM = Missing Value Source: Averaged Metar Reports

Daily Weather History Graph

Daily Weather History Graph

Search for Another Location

Airport:

Trip Planner

Search our weather history database for the weather conditions in past years. The results will help you decide how hot, cold, wet, or windy it might be!

Date:

Astronomy

Feb. 20, 2013 Rise Set
Actual Time 5:10 AM AWST 6:11 PM AWST
Civil Twilight 4:45 AM AWST 6:36 PM AWST
Nautical Twilight 4:16 AM AWST 7:05 PM AWST
Astronomical Twilight 3:45 AM AWST 7:35 PM AWST
Moon 2:07 PM AWST (2/20) No Moon Set
Length of Visible Light 13h 50m
Length of Day
13h 00m
Waxing Gibbous, 71% of the Moon is Illuminated
Feb 20
Waxing Gibbous
Feb 26
Full
Mar 5
Last Quarter
Mar 12
New
Mar 20
First Quarter

Hourly Weather History & Observations

Time (AWST) Temp. Heat Index Dew Point Humidity Pressure Visibility Wind Dir Wind Speed Gust Speed Precip Events Conditions
12:00 AM 63 °F - 52 °F 59% 30.03 in - ESE 12.7 mph - -  
12:00 AM 62.6 °F - 51.8 °F 68% 30.04 in - ESE 12.7 mph - N/A   Unknown
1:00 AM 62.6 °F - 51.8 °F 68% 30.04 in - ESE 10.4 mph - N/A   Unknown
2:00 AM 60 °F - 51 °F 64% 30.01 in - SE 6.9 mph - -  
2:00 AM 60.8 °F - 51.8 °F 72% 30.01 in - SE 6.9 mph - N/A   Unknown
3:00 AM 58 °F - 51 °F 69% 30.01 in - SSE 8.1 mph - -  
3:00 AM 59.0 °F - 50.0 °F 72% 30.01 in - SSE 8.1 mph - N/A   Unknown
4:00 AM 59.0 °F - 51.8 °F 77% 30.04 in - SE 6.9 mph - N/A   Unknown
5:00 AM 58 °F - 54 °F 81% 30.03 in - SE 8.1 mph - -  
5:00 AM 59.0 °F - 53.6 °F 82% 30.04 in - SE 8.1 mph - N/A   Unknown
6:00 AM 62 °F - 55 °F 71% 30.05 in - ESE 10.4 mph - -  
6:00 AM 62.6 °F - 55.4 °F 77% 30.06 in - ESE 10.4 mph - N/A   Unknown
7:00 AM 68.0 °F - 55.4 °F 64% 30.06 in - East 18.4 mph - N/A   Unknown
9:00 AM 74 °F - 54 °F 38% 30.06 in - ESE 12.7 mph - -  
9:00 AM 75.2 °F - 53.6 °F 47% 30.06 in - ESE 12.7 mph - N/A   Unknown
10:00 AM 78.8 °F - 53.6 °F 42% 30.04 in - ESE 10.4 mph - N/A   Unknown
11:00 AM 81 °F - 54 °F 28% 30.01 in - ESE 11.5 mph - -  
11:00 AM 80.6 °F 80.3 °F 53.6 °F 39% 30.01 in - ESE 11.5 mph - N/A   Unknown
12:00 PM 84.2 °F 82.8 °F 53.6 °F 35% 29.98 in - SSE 11.5 mph - N/A   Unknown
1:00 PM 87.8 °F 85.7 °F 53.6 °F 31% 29.95 in - SSE 11.5 mph - N/A   Unknown
2:00 PM 88 °F - 53 °F 20% 29.94 in - SE 6.9 mph - -  
2:00 PM 87.8 °F - 51.8 °F 29% 29.95 in - SE 6.9 mph - N/A   Unknown
3:00 PM 89 °F - 53 °F 20% 29.92 in - SSE 10.4 mph - -  
3:00 PM 89.6 °F 87.3 °F 53.6 °F 29% 29.92 in - SSE 10.4 mph - N/A   Unknown
3:50 PM 87.8 °F 86.1 °F 55.4 °F 33% 29.92 in - SE 18.4 mph 31.1 mph N/A   Unknown
4:00 PM 86.0 °F 84.2 °F 53.6 °F 33% 29.95 in - SE 20.7 mph - N/A   Unknown
5:00 PM 81 °F - 54 °F 29% 29.95 in - SE 20.7 mph - -  
5:00 PM 80.6 °F 80.3 °F 53.6 °F 39% 29.95 in - SE 20.7 mph - N/A   Unknown
6:00 PM 75 °F - 54 °F 38% 29.96 in - SE 24.2 mph - -  
6:00 PM 75.2 °F - 55.4 °F 50% 29.98 in - SE 24.2 mph - N/A   Unknown
7:00 PM 71.6 °F - 55.4 °F 57% 30.01 in - ESE 24.2 mph - N/A   Unknown
8:00 PM 69 °F - 57 °F 56% 30.02 in - SE 20.7 mph - -  
8:00 PM 68.0 °F - 57.2 °F 68% 30.04 in - SE 20.7 mph - N/A   Unknown
9:00 PM 67 °F - 57 °F 62% 30.03 in - ESE 21.9 mph - -  
9:00 PM 66.2 °F - 57.2 °F 73% 30.04 in - ESE 21.9 mph - N/A   Unknown
10:00 PM 66.2 °F - 57.2 °F 73% 30.04 in - ESE 18.4 mph - N/A   Unknown
11:00 PM 66 °F - 58 °F 69% 30.01 in - ESE 17.3 mph - -  
11:00 PM 66.2 °F - 59.0 °F 78% 30.04 in - ESE 17.3 mph - N/A   Unknown